Regional Weather Roundup
Issued by NWS New Orleans/Baton Rouge, LA

Home | Current Version | Previous Version | Text Only | Print | Product List | Glossary On
Versions: 1 2 3 4 5 6 7 8 9 10 11 12 13 14 15 16 17 18 19 20 21 22 23 24 25 26 27 28 29 30 31 32 33 34 35 36 37 38 39 40 41 42 43 44 45 46 47 48 49 50
000
ASUS44 KLIX 272307
RWRLIX
NEW ORLEANS REGIONAL WEATHER ROUNDUP
NATIONAL WEATHER SERVICE NEW ORLEANS LA
600 PM CDT THU AUG 27 2015

NOTE: "FAIR" INDICATES FEW OR NO CLOUDS BELOW 12,000 FEET WITH NO
      SIGNIFICANT WEATHER AND/OR OBSTRUCTIONS TO VISIBILITY.
      SKY/WX - SKY CONDITION AND SIGNIFICANT WEATHER.
      TMP - AIR TEMPERATURE.     DP    - DEWPOINT TEMPERATURE.
      RH  - RELATIVE HUMIDITY.   PRES  - PRESSURE.
      HI  - HEAT INDEX.          WCI   - WIND CHILL INDEX.

*  THESE STATIONS ARE NOT NWS OR FAA STATIONS AND ARE NOT UNDER
   NWS QUALITY CONTROL.

LAZ038-040-048-061>063-065>067-069-280000-
SOUTHEAST LOUISIANA

CITY           SKY/WX    TMP DP  RH WIND       PRES   REMARKS
N.O. AUDUBON     N/A     87  62  42 MISG        N/A
N.O. INTL ARPT MOSUNNY   86  57  37 N8        29.95S
N.O. LAKEFRONT SUNNY     83  60  45 W6        29.96S
N.O. DOWNTOWN*   N/A     88  57  35 N6        29.96S
RESERVE*         N/A     88  59  37 NE7       29.96R
SLIDELL        SUNNY     87  61  41 N7        29.95R
BATON ROUGE    SUNNY     88  57  34 VRB5      29.96S
BOOTHVILLE     SUNNY     84  61  45 NE7       29.96F
BELLE CHASSE   MOSUNNY   85  61  44 SE3       29.95S
BOGALUSA*      NOT AVBL
GALLIANO*      CLEAR     85  60  42 MISG      29.96F
NEW ROADS*       N/A     85  53  32 N9        29.97F
GONZALES*        N/A     86  60  41 N9        29.96R
HAMMOND*       SUNNY     90  52  27 NE6       29.97S
HOUMA*         NOT AVBL
PORT FOURCHON* CLEAR     82  61  47 E8        29.97F

$$

MSZ070-080>082-280000-
SOUTHERN MISSISSIPPI

CITY           SKY/WX    TMP DP  RH WIND       PRES   REMARKS
MCCOMB         SUNNY     87  57  35 VRB5      29.98R
GULFPORT       MOSUNNY   86  61  42 NE5       29.93F
BILOXI         MOSUNNY   85  62  45 CALM      29.93F
PASCAGOULA     SUNNY     86  62  44 N8        29.93S
STENNIS ARPT*  MOSUNNY   86  54  32 NE7       29.95S

$$

COASTAL OBSERVATIONS
LAKE AND NEARSHORE STATIONS

STATION/POSITION TIME  TEMP    WIND        PRES    WAVE
                       AIR SEA DIR/SP/G            HT/PER
                 (UTC) (F)     (DEG/KT/KT) (MB)    (FT/S)
PASCAGOULA       2200   88      40/ 10/ 14 1013.2
WAVELAND YACHT   2200   85 83   10/  2/  4 1014.5
GRAND ISLE       2200   83 85   40/  5/  9 1014.9
SOUTHWEST PASS   2200   86 86   10/ 10/ 13 1015.0
NEW CANAL        2200   83 85     CALM     1013.5
SHELL BEACH      2200   83 84   CALM  /  3 1014.0

OFFSHORE STATIONS

STATION/POSITION TIME  TEMP    WIND        PRES    WAVE
                       AIR SEA DIR/SP/G            HT/PER
                 (UTC) (F)     (DEG/KT/KT) (MB)    (FT/S)
64 S DAUPHIN ISL 2250   80 87  360/  6/ 10 1014.1    2/ 4

$$




USA.gov is the U.S. government's official web portal to all federal, state and local government web resources and services.